| time (UTC) | temp F | wind direction | speed MPH | gust MPH | rain 1hr in | rain 24hr in | rain mn in | humidity % | barometer mb |
| 20260901070015 | 66 | 0.0 | 0.0 | 0.00 | 0.14 | 0.00 | 97 | 1017.8 | |
| 20260901063018 | 66 | 0.0 | 0.0 | 0.00 | 0.14 | 0.00 | 97 | 1018.2 | |
| 20260901060018 | 66 | 0.0 | 0.0 | 0.00 | 0.14 | 0.00 | 96 | 1018.2 | |
| 20260901053017 | 66 | 0.0 | 0.0 | 0.00 | 0.14 | 0.00 | 97 | 1018.7 | |
| 20260901050017 | 66 | 0.0 | 0.0 | 0.00 | 0.14 | 0.00 | 97 | 1018.8 | |
| 20260901043017 | 66 | 0.0 | 0.0 | 0.00 | 0.14 | 0.00 | 96 | 1018.7 | |
| 20260901040017 | 65 | 0.0 | 0.0 | 0.01 | 0.14 | 0.14 | 96 | 1018.9 | |
| 20260901033017 | 65 | 0.0 | 0.0 | 0.02 | 0.14 | 0.14 | 96 | 1018.9 | |
| 20260901030017 | 65 | 0.0 | 0.0 | 0.01 | 0.13 | 0.13 | 96 | 1019.0 | |
| 20260901023017 | 65 | 0.0 | 0.0 | 0.01 | 0.12 | 0.12 | 96 | 1019.2 | |
| 20260901020017 | 65 | 0.0 | 0.0 | 0.03 | 0.12 | 0.12 | 96 | 1019.3 | |
| 20260901013017 | 65 | 0.0 | 0.0 | 0.03 | 0.11 | 0.11 | 96 | 1019.3 | |
| 20260901010017 | 65 | 0.0 | 0.0 | 0.02 | 0.09 | 0.09 | 96 | 1019.2 | |
| 20260901003017 | 65 | 0.0 | 0.0 | 0.01 | 0.08 | 0.08 | 95 | 1019.0 | |
| 20260901000017 | 65 | 0.0 | 0.0 | 0.01 | 0.07 | 0.07 | 95 | 1019.0 | |
| 20260831233017 | 65 | 0.0 | 0.0 | 0.01 | 0.07 | 0.07 | 95 | 1019.1 | |
| 20260831230017 | 65 | 0.0 | 0.0 | 0.00 | 0.06 | 0.06 | 94 | 1019.5 | |
| 20260831223017 | 65 | 0.0 | 0.0 | 0.00 | 0.06 | 0.06 | 94 | 1019.8 | |
| 20260831220017 | 65 | 0.0 | 0.0 | 0.00 | 0.07 | 0.06 | 93 | 1019.8 | |
| 20260831213017 | 65 | 0.0 | 0.0 | 0.00 | 0.08 | 0.06 | 93 | 1019.8 | |
| 20260831210036 | 65 | 135 | 1.0 | 7.0 | 0.00 | 0.08 | 0.06 | 93 | 1019.8 |
| 20260831203018 | 65 | 135 | 1.0 | 7.0 | 0.00 | 0.08 | 0.06 | 92 | 1020.0 |
| 20260831200017 | 65 | 0.0 | 7.0 | 0.00 | 0.08 | 0.06 | 91 | 1020.1 | |
| 20260831193017 | 66 | 0.0 | 0.0 | 0.00 | 0.08 | 0.06 | 91 | 1020.5 | |
| 20260831190016 | 67 | 0.0 | 0.0 | 0.02 | 0.08 | 0.06 | 91 | 1020.8 | |
| 20260831183016 | 67 | 0.0 | 0.0 | 0.06 | 0.08 | 0.06 | 91 | 1021.0 | |
| 20260831180016 | 67 | 0.0 | 0.0 | 0.04 | 0.06 | 0.04 | 89 | 1021.3 | |
| 20260831173016 | 67 | 0.0 | 0.0 | 0.00 | 0.02 | 0.00 | 87 | 1021.7 | |
| 20260831170018 | 67 | 113 | 1.0 | 4.0 | 0.00 | 0.02 | 0.00 | 88 | 1021.9 |
| 20260831163016 | 66 | 0.0 | 0.0 | 0.00 | 0.02 | 0.00 | 87 | 1022.0 | |
| 20260831160016 | 67 | 0.0 | 0.0 | 0.00 | 0.02 | 0.00 | 87 | 1022.3 | |
| 20260831153016 | 66 | 0.0 | 7.0 | 0.00 | 0.02 | 0.00 | 87 | 1022.1 | |
| 20260831150016 | 66 | 0.0 | 3.0 | 0.00 | 0.02 | 0.00 | 87 | 1021.8 | |
| 20260831143016 | 65 | 0.0 | 0.0 | 0.00 | 0.02 | 0.00 | 89 | 1022.0 | |
| 20260831140018 | 65 | 0.0 | 5.0 | 0.00 | 0.02 | 0.00 | 91 | 1022.3 | |
| 20260831133016 | 64 | 0.0 | 0.0 | 0.00 | 0.02 | 0.00 | 95 | 1022.2 | |
| 20260831130036 | 63 | 0.0 | 0.0 | 0.00 | 0.02 | 0.00 | 96 | 1022.0 | |
| 20260831123037 | 62 | 0.0 | 0.0 | 0.00 | 0.02 | 0.00 | 97 | 1022.1 | |
| 20260831120016 | 61 | 0.0 | 0.0 | 0.00 | 0.02 | 0.00 | 97 | 1022.1 | |
| 20260831113016 | 60 | 0.0 | 0.0 | 0.00 | 0.02 | 0.00 | 96 | 1021.9 | |
| 20260831110016 | 60 | 0.0 | 0.0 | 0.00 | 0.02 | 0.00 | 96 | 1021.6 | |
| 20260831103016 | 59 | 0.0 | 0.0 | 0.00 | 0.02 | 0.00 | 96 | 1021.5 | |
| 20260831100016 | 59 | 0.0 | 0.0 | 0.00 | 0.02 | 0.00 | 96 | 1021.2 | |
| 20260831093016 | 59 | 0.0 | 0.0 | 0.00 | 0.02 | 0.00 | 95 | 1021.4 | |
| 20260831090036 | 59 | 0.0 | 0.0 | 0.00 | 0.02 | 0.00 | 95 | 1021.3 | |
| 20260831083016 | 60 | 0.0 | 0.0 | 0.00 | 0.02 | 0.00 | 96 | 1021.2 | |
| 20260831080037 | 60 | 0.0 | 0.0 | 0.00 | 0.02 | 0.00 | 95 | 1021.5 | |
| 20260831073016 | 60 | 0.0 | 0.0 | 0.00 | 0.02 | 0.00 | 95 | 1021.4 |